Weather History for FAGG - April, 2013

Change the Weather History Date:

Wednesday, April 17, 2013

  Actual Average Record
Temperature  
Mean Temperature 66 °F -  
Max Temperature 75 °F 69 °F 82 °F (2003)
Min Temperature 55 °F 51 °F 49 °F (2014)
Cooling Degree Days 1    
Growing Degree Days 16 (Base 50)    
Moisture  
Dew Point 55 °F    
Average Humidity 63    
Maximum Humidity 94    
Minimum Humidity 28    
Precipitation  
Precipitation 0.47 in - - ()
Sea Level Pressure  
Sea Level Pressure 29.59 in    
Wind  
Wind Speed 10 mph ()    
Max Wind Speed 18 mph    
Max Gust Speed -    
Visibility 7.7 miles    
Events Rain , Thunderstorm    
Averages and records for this station are not official NWS values.
T = Trace of Precipitation, MM = Missing Value Source: Averaged Metar Reports

Daily Weather History Graph

Daily Weather History Graph

Search for Another Location

Airport or City:

Trip Planner

Search our weather history database for the weather conditions in past years. The results will help you decide how hot, cold, wet, or windy it might be!

Date:

Astronomy

Apr. 17, 2013 Rise Set
Actual Time 6:54 AM SAST 6:04 PM SAST
Civil Twilight 6:29 AM SAST 6:30 PM SAST
Nautical Twilight 6:00 AM SAST 6:59 PM SAST
Astronomical Twilight 5:31 AM SAST 7:28 PM SAST
Moon 12:44 PM SAST (4/17) 11:25 PM SAST (4/17)
Length of Visible Light 12h 00m
Length of Day
11h 10m
Waxing Crescent, 40% of the Moon is Illuminated
Apr 17
Waxing Crescent
Apr 18
First Quarter
Apr 25
Full
May 2
Last Quarter
May 10
New

Hourly Weather History & Observations

Time (SAST) Temp. Dew Point Humidity Pressure Visibility Wind Dir Wind Speed Gust Speed Precip Events Conditions
12:00 AM 77.0 °F 41.0 °F 28% 29.59 in - NW 13.8 mph - N/A   Clear
1:00 AM 75.2 °F 44.6 °F 34% 29.59 in 6.2 mi NNW 18.4 mph - N/A Rain Light Rain
2:00 AM 76 °F 50 °F 29% 29.56 in 37 mi NNW 16.1 mph - -  
2:00 AM 75.2 °F 50.0 °F 41% 29.56 in 6.2 mi NNW 16.1 mph - N/A   Partly Cloudy
3:00 AM 75.2 °F 51.8 °F 44% 29.53 in - WNW 12.7 mph - N/A   Clear
4:00 AM 75.2 °F 53.6 °F 47% 29.53 in - NW 16.1 mph - N/A   Clear
5:00 AM 74 °F 53 °F 36% 29.54 in 19 mi West 16.1 mph - -   Partly Cloudy
5:00 AM 73.4 °F 53.6 °F 50% 29.53 in 6.2 mi West 17.3 mph - N/A   Scattered Clouds
6:00 AM 66.2 °F 53.6 °F 64% 29.56 in 6.2 mi SSE 3.5 mph - N/A   Scattered Clouds
7:00 AM 62.6 °F 55.4 °F 77% 29.56 in 6.2 mi East 3.5 mph - N/A   Partly Cloudy
8:00 AM 65 °F 55 °F 63% 29.58 in 12 mi NE 3.5 mph - -   Partly Cloudy
8:00 AM 64.4 °F 57.2 °F 77% 29.56 in 6.2 mi Variable 2.3 mph - N/A   Scattered Clouds
9:00 AM 68.0 °F 57.2 °F 68% 29.59 in 6.2 mi NNW 3.5 mph - N/A   Mostly Cloudy
10:00 AM 71.6 °F 55.4 °F 57% 29.59 in 6.2 mi WSW 4.6 mph - N/A   Mostly Cloudy
11:00 AM 72 °F 56 °F 48% 29.57 in 19 mi South 11.5 mph - -   Mostly Cloudy
11:00 AM 71.6 °F 57.2 °F 60% 29.59 in 6.2 mi South 10.4 mph - N/A   Mostly Cloudy
12:00 PM 69.8 °F 57.2 °F 64% 29.56 in 6.2 mi SSE 8.1 mph - N/A   Mostly Cloudy
1:00 PM 73.4 °F 57.2 °F 57% 29.56 in 6.2 mi Variable 2.3 mph - N/A   Mostly Cloudy
2:00 PM 71 °F 57 °F 52% 29.55 in 12 mi South 12.7 mph - -   Partly Cloudy
2:00 PM 71.6 °F 57.2 °F 60% 29.53 in 6.2 mi South 12.7 mph - N/A   Scattered Clouds
3:00 PM 69.8 °F 57.2 °F 64% 29.53 in 6.2 mi SE 8.1 mph - N/A   Scattered Clouds
4:00 PM 71.6 °F 57.2 °F 60% 29.56 in 6.2 mi ENE 3.5 mph - N/A   Partly Cloudy
5:00 PM 63 °F 55 °F 68% 29.61 in 12 mi South 12.7 mph - -   Mostly Cloudy
5:00 PM 62.6 °F 55.4 °F 77% 29.59 in 6.2 mi South 11.5 mph - N/A   Mostly Cloudy
6:00 PM 60.8 °F 59.0 °F 94% 29.65 in 6.2 mi WNW 5.8 mph - N/A Rain Light Rain
7:00 PM 60.8 °F 57.2 °F 88% 29.65 in 6.2 mi Variable 2.3 mph - N/A   Mostly Cloudy
8:00 PM 59 °F 57 °F 92% 29.70 in 3 mi West 11.5 mph - - Rain , Thunderstorm Thunderstorms and Rain
8:00 PM 59.0 °F 57.2 °F 94% 29.68 in - West 11.5 mph - N/A Rain , Thunderstorm Thunderstorms and Rain
9:00 PM 57.2 °F 55.4 °F 94% 29.71 in 3.7 mi West 15.0 mph - N/A Rain Rain
11:00 PM 55.4 °F 51.8 °F 88% 29.77 in 6.2 mi NW 11.5 mph - N/A Rain Light Rain